Regional Weather Roundup
Issued by NWS

Home | Current Version | Previous Version | Text Only | Print | Product List | Glossary On
Versions: 1 2 3 4 5 6 7 8 9 10 11 12 13 14 15 16 17 18 19 20 21 22 23 24 25 26 27 28 29 30 31 32 33 34 35 36 37 38 39 40 41 42 43 44 45 46 47 48 49 50
000
ASUS43 KLSX 230210
RWRMO

WEATHER SUMMARY FOR MISSOURI
NATIONAL WEATHER SERVICE SPRINGFIELD MO
900 PM CDT TUE MAY 22 2018

NOTE: "FAIR" INDICATES FEW OR NO CLOUDS BELOW 12,000 FEET WITH NO
       SIGNIFICANT WEATHER AND/OR OBSTRUCTIONS TO VISIBILITY.
       CURRENT SKY AND/OR WEATHER CONDITIONS ARE NOT AVAILABLE FOR
       CHILLICOTHE AND FARMINGTON.

MOZ001>031-035>038-043-044-053-054-230300-
...NORTHERN AND WESTERN MISSOURI...

CITY           SKY/WX    TMP DP  RH WIND       PRES   REMARKS
KANSAS CTY INT PTCLDY    75  63  66 SE7       30.00R
KANSAS C DTWN  CLEAR     81  63  54 SE5       29.98R
LEE`S SUMMIT   CLEAR     77  66  68 SE5       30.01R
ST JOSEPH      CLEAR     77  64  64 SE8       29.98R
CHILLICOTHE      N/A     75  62  64 S3        30.01R
KIRKSVILLE     CLEAR     72  63  73 SE6       30.04R

$$
MOZ066>068-077>081-088>096-101>105-230300-
...SOUTHWEST MISSOURI...

CITY           SKY/WX    TMP DP  RH WIND       PRES   REMARKS
SPRINGFIELD    PTCLDY    75  67  76 E5        30.02R
JOPLIN         PTCLDY    77  67  71 SE6       30.00R
BRANSON        MOCLDY    72  66  83 S8        30.06R

$$
MOZ032>034-039>042-045>050-055>058-069>072-230300-
...CENTRAL MISSOURI...

CITY           SKY/WX    TMP DP  RH WIND       PRES   REMARKS
COLUMBIA       CLEAR     75  64  68 E5        30.03R
JEFFERSON CITY CLEAR     76  66  71 CALM      30.01R
ROLLA          FAIR      72  63  73 E3        30.04R
SEDALIA        CLEAR     75  68  78 SE5       30.02S
WHITEMAN AFB   PTCLDY    75  64  70 SE3       29.97R
WARRENSBURG    CLEAR     73  63  68 CALM      30.01R
OSAGE BEACH    FAIR      68  66  93 CALM      30.03R

$$
MOZ051-052-059>065-230300-
...EAST CENTRAL MISSOURI...

CITY           SKY/WX    TMP DP  RH WIND       PRES   REMARKS
ST LOUIS INTL  PTCLDY    79  63  57 NE6       30.02R
SPIRIT OF STL  PTCLDY    74  68  81 CALM      30.01R
ST CHARLES     CLEAR     73  69  87 N3        30.01R

$$
MOZ072>076-082>087-097>100-106>115-230300-
...SOUTH CENTRAL AND SOUTHEAST MISSOURI...

CITY           SKY/WX    TMP DP  RH WIND       PRES   REMARKS
CAPE GIRARDEAU FAIR      76  67  73 CALM      30.00R
FARMINGTON     CLOUDY    72  66  81 CALM      30.04R
POPLAR BLUFF   FAIR      77  70  79 CALM      30.00R
WEST PLAINS    PTCLDY    77  69  76 S3        30.05R

$$




USA.gov is the U.S. government's official web portal to all federal, state and local government web resources and services.